owner,sensor,date,latitude,longitude,vertical_datum,direction_of_sea_water_velocity,sea_water_speed,upward_sea_water_velocity,qcFlag 
TABS,ioos:station:wmo:42043:1,2008-11-01T00:00:00Z,28.9818,-94.9186,2.0,275.5822689,46.05839771,-99999.0,'11111222,11111222,99999999' 
TABS,ioos:station:wmo:42043:1,2008-11-01T00:30:00Z,28.9818,-94.9186,2.0,273.196693,42.50612309,-99999.0,'11111222,11111222,99999999' 
TABS,ioos:station:wmo:42043:1,2008-11-01T01:00:00Z,28.9818,-94.9186,2.0,274.4170314,44.15110871,-99999.0,'11111222,11111222,99999999' 
TABS,ioos:station:wmo:42043:1,2008-11-01T01:30:00Z,28.9818,-94.9186,2.0,271.366168,44.89275331,-99999.0,'11111222,11111222,99999999' 
TABS,ioos:station:wmo:42043:1,2008-11-01T02:00:00Z,28.9818,-94.9186,2.0,273.8817471,41.3648752,-99999.0,'11111222,11111222,99999999' 
TABS,ioos:station:wmo:42043:1,2008-11-01T02:30:00Z,28.9818,-94.9186,2.0,271.0967845,39.19717592,-99999.0,'11111222,11111222,99999999' 
TABS,ioos:station:wmo:42043:1,2008-11-01T03:00:00Z,28.9818,-94.9186,2.0,268.1669922,36.89887261,-99999.0,'11111222,11111222,99999999' 
TABS,ioos:station:wmo:42043:1,2008-11-01T03:30:00Z,28.9818,-94.9186,2.0,268.6914539,33.72879037,-99999.0,'11111222,11111222,99999999' 
TABS,ioos:station:wmo:42043:1,2008-11-01T04:00:00Z,28.9818,-94.9186,2.0,271.3501191,29.71824524,-99999.0,'11111222,11111222,99999999' 
TABS,ioos:station:wmo:42043:1,2008-11-01T04:30:00Z,28.9818,-94.9186,2.0,272.0026723,28.90764951,-99999.0,'11111222,11111222,99999999' 
TABS,ioos:station:wmo:42043:1,2008-11-01T05:00:00Z,28.9818,-94.9186,2.0,269.929018,24.36001847,-99999.0,'11111222,11111222,99999999' 
TABS,ioos:station:wmo:42043:1,2008-11-01T05:30:00Z,28.9818,-94.9186,2.0,268.5692441,24.43761445,-99999.0,'11111222,11111222,99999999' 
TABS,ioos:station:wmo:42043:1,2008-11-01T06:00:00Z,28.9818,-94.9186,2.0,262.3619151,22.87292067,-99999.0,'11111222,11111222,99999999' 
TABS,ioos:station:wmo:42043:1,2008-11-01T06:30:00Z,28.9818,-94.9186,2.0,261.1161049,18.71449171,-99999.0,'11111222,11111222,99999999' 
TABS,ioos:station:wmo:42043:1,2008-11-01T07:00:00Z,28.9818,-94.9186,2.0,252.1582085,15.56872827,-99999.0,'11111222,11111222,99999999' 
TABS,ioos:station:wmo:42043:1,2008-11-01T07:30:00Z,28.9818,-94.9186,2.0,240.1175902,19.16838282,-99999.0,'11111222,11111222,99999999' 
TABS,ioos:station:wmo:42043:1,2008-11-01T08:00:00Z,28.9818,-94.9186,2.0,232.7620439,19.63240434,-99999.0,'11111222,11111222,99999999' 
TABS,ioos:station:wmo:42043:1,2008-11-01T08:30:00Z,28.9818,-94.9186,2.0,217.1426422,18.46620968,-99999.0,'11111222,11111222,99999999' 
TABS,ioos:station:wmo:42043:1,2008-11-01T09:00:00Z,28.9818,-94.9186,2.0,219.1621291,19.0492467,-99999.0,'11111222,11111222,99999999' 
TABS,ioos:station:wmo:42043:1,2008-11-01T09:30:00Z,28.9818,-94.9186,2.0,213.4313277,19.67541613,-99999.0,'11111222,11111222,99999999' 
TABS,ioos:station:wmo:42043:1,2008-11-01T10:00:00Z,28.9818,-94.9186,2.0,212.6702028,18.08054203,-99999.0,'11111222,11111222,99999999' 
TABS,ioos:station:wmo:42043:1,2008-11-01T10:30:00Z,28.9818,-94.9186,2.0,208.651277,18.9162602,-99999.0,'11111222,11111222,99999999' 
TABS,ioos:station:wmo:42043:1,2008-11-01T11:00:00Z,28.9818,-94.9186,2.0,205.0441184,21.40223586,-99999.0,'11111222,11111222,99999999' 
TABS,ioos:station:wmo:42043:1,2008-11-01T11:30:00Z,28.9818,-94.9186,2.0,211.2899293,23.77866481,-99999.0,'11111222,11111222,99999999' 
TABS,ioos:station:wmo:42043:1,2008-11-01T12:00:00Z,28.9818,-94.9186,2.0,211.5463486,23.43306425,-99999.0,'11111222,11111222,99999999' 
TABS,ioos:station:wmo:42043:1,2008-11-01T12:30:00Z,28.9818,-94.9186,2.0,210.2657884,21.40804055,-99999.0,'11111222,11111222,99999999' 
TABS,ioos:station:wmo:42043:1,2008-11-01T13:00:00Z,28.9818,-94.9186,2.0,212.9411907,21.86537445,-99999.0,'11111222,11111222,99999999' 
TABS,ioos:station:wmo:42043:1,2008-11-01T13:30:00Z,28.9818,-94.9186,2.0,211.4209443,19.54631679,-99999.0,'11111222,11111222,99999999' 
TABS,ioos:station:wmo:42043:1,2008-11-01T14:00:00Z,28.9818,-94.9186,2.0,212.1376421,18.32847239,-99999.0,'11111222,11111222,99999999' 
TABS,ioos:station:wmo:42043:1,2008-11-01T14:30:00Z,28.9818,-94.9186,2.0,222.9296585,17.03117436,-99999.0,'11111222,11111222,99999999' 
TABS,ioos:station:wmo:42043:1,2008-11-01T15:00:00Z,28.9818,-94.9186,2.0,218.0996664,17.42201481,-99999.0,'11111222,11111222,99999999' 
TABS,ioos:station:wmo:42043:1,2008-11-01T15:30:00Z,28.9818,-94.9186,2.0,222.8884817,15.16359126,-99999.0,'11111222,11111222,99999999' 
TABS,ioos:station:wmo:42043:1,2008-11-01T16:00:00Z,28.9818,-94.9186,2.0,217.2514249,16.20635986,-99999.0,'11111222,11111222,99999999' 
TABS,ioos:station:wmo:42043:1,2008-11-01T16:30:00Z,28.9818,-94.9186,2.0,217.8746846,15.50638578,-99999.0,'11111222,11111222,99999999' 
TABS,ioos:station:wmo:42043:1,2008-11-01T17:00:00Z,28.9818,-94.9186,2.0,213.933292,13.70399212,-99999.0,'11111222,11111222,99999999' 
TABS,ioos:station:wmo:42043:1,2008-11-01T17:30:00Z,28.9818,-94.9186,2.0,197.3109715,16.76962134,-99999.0,'11111222,11111222,99999999' 
TABS,ioos:station:wmo:42043:1,2008-11-01T18:00:00Z,28.9818,-94.9186,2.0,206.3192273,15.65261959,-99999.0,'11111222,11111222,99999999' 
TABS,ioos:station:wmo:42043:1,2008-11-01T18:30:00Z,28.9818,-94.9186,2.0,213.5562222,15.46785699,-99999.0,'11111222,11111222,99999999' 
TABS,ioos:station:wmo:42043:1,2008-11-01T19:00:00Z,28.9818,-94.9186,2.0,221.7269283,15.23471365,-99999.0,'11111222,11111222,99999999' 
TABS,ioos:station:wmo:42043:1,2008-11-01T19:30:00Z,28.9818,-94.9186,2.0,219.8715053,13.29023702,-99999.0,'11111222,11111222,99999999' 
TABS,ioos:station:wmo:42043:1,2008-11-01T20:00:00Z,28.9818,-94.9186,2.0,225.2313366,10.4935504,-99999.0,'11111222,11111222,99999999' 
TABS,ioos:station:wmo:42043:1,2008-11-01T20:30:00Z,28.9818,-94.9186,2.0,218.1445814,7.819936061,-99999.0,'11133222,11111222,99999999' 
TABS,ioos:station:wmo:42043:1,2008-11-01T21:00:00Z,28.9818,-94.9186,2.0,209.2712851,6.156053931,-99999.0,'11133222,11111222,99999999' 
TABS,ioos:station:wmo:42043:1,2008-11-01T21:30:00Z,28.9818,-94.9186,2.0,203.600661,6.918706527,-99999.0,'11133222,11111222,99999999' 
TABS,ioos:station:wmo:42043:1,2008-11-01T22:00:00Z,28.9818,-94.9186,2.0,215.117317,5.232446846,-99999.0,'11133222,11111222,99999999' 
TABS,ioos:station:wmo:42043:1,2008-11-01T22:30:00Z,28.9818,-94.9186,2.0,193.5701922,1.193314711,-99999.0,'11133222,11111222,99999999' 
TABS,ioos:station:wmo:42043:1,2008-11-01T23:00:00Z,28.9818,-94.9186,2.0,193.0767209,2.607623439,-99999.0,'11133222,11111222,99999999' 
TABS,ioos:station:wmo:42043:1,2008-11-01T23:30:00Z,28.9818,-94.9186,2.0,174.4722623,1.24579292,-99999.0,'11133222,11111222,99999999' 
TABS,ioos:station:wmo:42043:1,2008-11-02T00:00:00Z,28.9818,-94.9186,2.0,161.6371355,2.507688178,-99999.0,'11133222,11111222,99999999' 
TABS,ioos:station:wmo:42043:1,2008-11-02T00:30:00Z,28.9818,-94.9186,2.0,170.1038778,3.258481241,-99999.0,'11133222,11111222,99999999' 
TABS,ioos:station:wmo:42043:1,2008-11-02T01:00:00Z,28.9818,-94.9186,2.0,254.1834391,3.045291447,-99999.0,'11133222,11111222,99999999' 
TABS,ioos:station:wmo:42043:1,2008-11-02T01:30:00Z,28.9818,-94.9186,2.0,243.2572047,4.333520509,-99999.0,'11133222,11111222,99999999' 
TABS,ioos:station:wmo:42043:1,2008-11-02T02:00:00Z,28.9818,-94.9186,2.0,313.2989651,3.572464136,-99999.0,'11133222,11111222,99999999' 
TABS,ioos:station:wmo:42043:1,2008-11-02T02:30:00Z,28.9818,-94.9186,2.0,249.8397806,3.046653902,-99999.0,'11133222,11111222,99999999' 
TABS,ioos:station:wmo:42043:1,2008-11-02T03:00:00Z,28.9818,-94.9186,2.0,229.908735,2.313655117,-99999.0,'11133222,11111222,99999999' 
TABS,ioos:station:wmo:42043:1,2008-11-02T03:30:00Z,28.9818,-94.9186,2.0,172.8225605,2.721323208,-99999.0,'11133222,11111222,99999999' 
TABS,ioos:station:wmo:42043:1,2008-11-02T04:00:00Z,28.9818,-94.9186,2.0,114.2743844,1.678392088,-99999.0,'11133222,11111222,99999999' 
TABS,ioos:station:wmo:42043:1,2008-11-02T04:30:00Z,28.9818,-94.9186,2.0,121.2965795,2.656557923,-99999.0,'11133222,11111222,99999999' 
TABS,ioos:station:wmo:42043:1,2008-11-02T05:00:00Z,28.9818,-94.9186,2.0,33.38864596,2.634862425,-99999.0,'11133222,11111222,99999999' 
TABS,ioos:station:wmo:42043:1,2008-11-02T05:30:00Z,28.9818,-94.9186,2.0,49.03076726,4.728096869,-99999.0,'11133222,11111222,99999999' 
TABS,ioos:station:wmo:42043:1,2008-11-02T06:00:00Z,28.9818,-94.9186,2.0,38.4966416,4.931987429,-99999.0,'11133222,11111222,99999999' 
TABS,ioos:station:wmo:42043:1,2008-11-02T06:30:00Z,28.9818,-94.9186,2.0,13.38809068,5.787270514,-99999.0,'11133222,11111222,99999999' 
TABS,ioos:station:wmo:42043:1,2008-11-02T07:00:00Z,28.9818,-94.9186,2.0,21.37466116,5.981412877,-99999.0,'11133222,11111222,99999999' 
TABS,ioos:station:wmo:42043:1,2008-11-02T07:30:00Z,28.9818,-94.9186,2.0,27.32403787,4.052110561,-99999.0,'11133222,11111222,99999999' 
TABS,ioos:station:wmo:42043:1,2008-11-02T08:00:00Z,28.9818,-94.9186,2.0,71.5983477,5.448605326,-99999.0,'11133222,11111222,99999999' 
TABS,ioos:station:wmo:42043:1,2008-11-02T08:30:00Z,28.9818,-94.9186,2.0,90.59065583,5.82030927,-99999.0,'11133222,11111222,99999999' 
TABS,ioos:station:wmo:42043:1,2008-11-02T09:00:00Z,28.9818,-94.9186,2.0,84.74802862,3.605135226,-99999.0,'11133222,11111222,99999999' 
TABS,ioos:station:wmo:42043:1,2008-11-02T09:30:00Z,28.9818,-94.9186,2.0,93.03208817,6.238733846,-99999.0,'11133222,11111222,99999999' 
TABS,ioos:station:wmo:42043:1,2008-11-02T10:00:00Z,28.9818,-94.9186,2.0,129.4630254,5.569703762,-99999.0,'11133222,11111222,99999999' 
TABS,ioos:station:wmo:42043:1,2008-11-02T10:30:00Z,28.9818,-94.9186,2.0,141.9247941,9.794166631,-99999.0,'11133222,11111222,99999999' 
TABS,ioos:station:wmo:42043:1,2008-11-02T11:00:00Z,28.9818,-94.9186,2.0,147.6018477,10.20907929,-99999.0,'11111222,11111222,99999999' 
TABS,ioos:station:wmo:42043:1,2008-11-02T11:30:00Z,28.9818,-94.9186,2.0,146.2501489,10.65579654,-99999.0,'11111222,11111222,99999999' 
TABS,ioos:station:wmo:42043:1,2008-11-02T12:00:00Z,28.9818,-94.9186,2.0,165.5817727,11.64681931,-99999.0,'11111222,11111222,99999999' 
TABS,ioos:station:wmo:42043:1,2008-11-02T12:30:00Z,28.9818,-94.9186,2.0,169.8628632,13.12488095,-99999.0,'11111222,11111222,99999999' 
TABS,ioos:station:wmo:42043:1,2008-11-02T13:00:00Z,28.9818,-94.9186,2.0,173.6645294,12.86858578,-99999.0,'11111222,11111222,99999999' 
TABS,ioos:station:wmo:42043:1,2008-11-02T13:30:00Z,28.9818,-94.9186,2.0,177.1539641,12.08490381,-99999.0,'11111222,11111222,99999999' 
TABS,ioos:station:wmo:42043:1,2008-11-02T14:00:00Z,28.9818,-94.9186,2.0,190.7326809,14.60550923,-99999.0,'11111222,11111222,99999999' 
TABS,ioos:station:wmo:42043:1,2008-11-02T14:30:00Z,28.9818,-94.9186,2.0,195.9051013,13.75666384,-99999.0,'11111222,11111222,99999999' 
TABS,ioos:station:wmo:42043:1,2008-11-02T15:00:00Z,28.9818,-94.9186,2.0,209.1990288,16.1525354,-99999.0,'11111222,11111222,99999999' 
TABS,ioos:station:wmo:42043:1,2008-11-02T15:30:00Z,28.9818,-94.9186,2.0,216.0192642,16.17178098,-99999.0,'11111222,11111222,99999999' 
TABS,ioos:station:wmo:42043:1,2008-11-02T16:00:00Z,28.9818,-94.9186,2.0,225.7879165,19.53213762,-99999.0,'11111222,11111222,99999999' 
TABS,ioos:station:wmo:42043:1,2008-11-02T16:30:00Z,28.9818,-94.9186,2.0,229.2502061,22.22893835,-99999.0,'11111222,11111222,99999999' 
TABS,ioos:station:wmo:42043:1,2008-11-02T17:00:00Z,28.9818,-94.9186,2.0,232.9831176,17.97205887,-99999.0,'11111222,11111222,99999999' 
TABS,ioos:station:wmo:42043:1,2008-11-02T17:30:00Z,28.9818,-94.9186,2.0,244.1886203,18.35076293,-99999.0,'11111222,11111222,99999999' 
TABS,ioos:station:wmo:42043:1,2008-11-02T18:00:00Z,28.9818,-94.9186,2.0,247.0229324,17.29187381,-99999.0,'11111222,11111222,99999999' 
TABS,ioos:station:wmo:42043:1,2008-11-02T18:30:00Z,28.9818,-94.9186,2.0,253.1158205,16.35496866,-99999.0,'11111222,11111222,99999999' 
TABS,ioos:station:wmo:42043:1,2008-11-02T19:00:00Z,28.9818,-94.9186,2.0,264.4288155,19.57243981,-99999.0,'11111222,11111222,99999999' 
TABS,ioos:station:wmo:42043:1,2008-11-02T19:30:00Z,28.9818,-94.9186,2.0,278.9335139,25.63089542,-99999.0,'11111222,11111222,99999999' 
TABS,ioos:station:wmo:42043:1,2008-11-02T20:00:00Z,28.9818,-94.9186,2.0,281.6779853,26.28402557,-99999.0,'11111222,11111222,99999999' 
TABS,ioos:station:wmo:42043:1,2008-11-02T20:30:00Z,28.9818,-94.9186,2.0,287.1694074,26.05087714,-99999.0,'11111222,11111222,99999999' 
TABS,ioos:station:wmo:42043:1,2008-11-02T21:00:00Z,28.9818,-94.9186,2.0,288.0113708,23.93277251,-99999.0,'11111222,11111222,99999999' 
TABS,ioos:station:wmo:42043:1,2008-11-02T21:30:00Z,28.9818,-94.9186,2.0,290.9666875,24.84496126,-99999.0,'11111222,11111222,99999999' 
TABS,ioos:station:wmo:42043:1,2008-11-02T22:00:00Z,28.9818,-94.9186,2.0,290.6510173,23.39304598,-99999.0,'11111222,11111222,99999999' 
TABS,ioos:station:wmo:42043:1,2008-11-02T22:30:00Z,28.9818,-94.9186,2.0,294.0866267,20.68061895,-99999.0,'11111222,11111222,99999999' 
TABS,ioos:station:wmo:42043:1,2008-11-02T23:00:00Z,28.9818,-94.9186,2.0,295.815843,18.1181732,-99999.0,'11111222,11111222,99999999' 
TABS,ioos:station:wmo:42043:1,2008-11-02T23:30:00Z,28.9818,-94.9186,2.0,292.0908861,18.40078531,-99999.0,'11111222,11111222,99999999' 
TABS,ioos:station:wmo:42043:1,2008-11-03T00:00:00Z,28.9818,-94.9186,2.0,294.5846154,16.56127109,-99999.0,'11111222,11111222,99999999' 
TABS,ioos:station:wmo:42043:1,2008-11-03T00:30:00Z,28.9818,-94.9186,2.0,284.6744795,17.21139448,-99999.0,'11111222,11111222,99999999' 
TABS,ioos:station:wmo:42043:1,2008-11-03T01:00:00Z,28.9818,-94.9186,2.0,288.2451869,17.15228848,-99999.0,'11111222,11111222,99999999' 
TABS,ioos:station:wmo:42043:1,2008-11-03T01:30:00Z,28.9818,-94.9186,2.0,286.2480145,14.58240035,-99999.0,'11111222,11111222,99999999' 
TABS,ioos:station:wmo:42043:1,2008-11-03T02:00:00Z,28.9818,-94.9186,2.0,282.5190711,12.27175619,-99999.0,'11111222,11111222,99999999' 
TABS,ioos:station:wmo:42043:1,2008-11-03T02:30:00Z,28.9818,-94.9186,2.0,274.7817572,13.43675928,-99999.0,'11111222,11111222,99999999' 
TABS,ioos:station:wmo:42043:1,2008-11-03T03:00:00Z,28.9818,-94.9186,2.0,275.9331109,12.57736459,-99999.0,'11111222,11111222,99999999' 
TABS,ioos:station:wmo:42043:1,2008-11-03T03:30:00Z,28.9818,-94.9186,2.0,266.0043171,12.19964754,-99999.0,'11111222,11111222,99999999' 
TABS,ioos:station:wmo:42043:1,2008-11-03T04:00:00Z,28.9818,-94.9186,2.0,266.9178436,10.04452587,-99999.0,'11111222,11111222,99999999' 
TABS,ioos:station:wmo:42043:1,2008-11-03T04:30:00Z,28.9818,-94.9186,2.0,264.1961773,11.66981148,-99999.0,'11111222,11111222,99999999' 
TABS,ioos:station:wmo:42043:1,2008-11-03T05:00:00Z,28.9818,-94.9186,2.0,251.8352529,10.71391618,-99999.0,'11111222,11111222,99999999' 
TABS,ioos:station:wmo:42043:1,2008-11-03T05:30:00Z,28.9818,-94.9186,2.0,251.410238,11.73209274,-99999.0,'11111222,11111222,99999999' 
TABS,ioos:station:wmo:42043:1,2008-11-03T06:00:00Z,28.9818,-94.9186,2.0,246.0204965,13.97624055,-99999.0,'11111222,11111222,99999999' 
TABS,ioos:station:wmo:42043:1,2008-11-03T06:30:00Z,28.9818,-94.9186,2.0,242.5270582,11.01178006,-99999.0,'11111222,11111222,99999999' 
TABS,ioos:station:wmo:42043:1,2008-11-03T07:00:00Z,28.9818,-94.9186,2.0,241.2236535,12.98333162,-99999.0,'11111222,11111222,99999999' 
TABS,ioos:station:wmo:42043:1,2008-11-03T07:30:00Z,28.9818,-94.9186,2.0,244.7294387,11.47843195,-99999.0,'11111222,11111222,99999999' 
TABS,ioos:station:wmo:42043:1,2008-11-03T08:00:00Z,28.9818,-94.9186,2.0,240.1354844,12.51141079,-99999.0,'11111222,11111222,99999999' 
TABS,ioos:station:wmo:42043:1,2008-11-03T08:30:00Z,28.9818,-94.9186,2.0,245.8028376,8.441658605,-99999.0,'11133222,11111222,99999999' 
TABS,ioos:station:wmo:42043:1,2008-11-03T09:00:00Z,28.9818,-94.9186,2.0,239.9833868,10.47485083,-99999.0,'11111222,11111222,99999999' 
TABS,ioos:station:wmo:42043:1,2008-11-03T09:30:00Z,28.9818,-94.9186,2.0,237.1180473,13.1698937,-99999.0,'11111222,11111222,99999999' 
TABS,ioos:station:wmo:42043:1,2008-11-03T10:00:00Z,28.9818,-94.9186,2.0,229.2187698,12.11020231,-99999.0,'11111222,11111222,99999999' 
TABS,ioos:station:wmo:42043:1,2008-11-03T10:30:00Z,28.9818,-94.9186,2.0,226.8957998,13.46361393,-99999.0,'11111222,11111222,99999999' 
TABS,ioos:station:wmo:42043:1,2008-11-03T11:00:00Z,28.9818,-94.9186,2.0,237.5482221,13.34365767,-99999.0,'11111222,11111222,99999999' 
TABS,ioos:station:wmo:42043:1,2008-11-03T11:30:00Z,28.9818,-94.9186,2.0,231.5386311,14.40555448,-99999.0,'11111222,11111222,99999999' 
TABS,ioos:station:wmo:42043:1,2008-11-03T12:00:00Z,28.9818,-94.9186,2.0,243.8522546,17.17793061,-99999.0,'11111222,11111222,99999999' 
TABS,ioos:station:wmo:42043:1,2008-11-03T12:30:00Z,28.9818,-94.9186,2.0,235.833625,16.02584163,-99999.0,'11111222,11111222,99999999' 
TABS,ioos:station:wmo:42043:1,2008-11-03T13:00:00Z,28.9818,-94.9186,2.0,234.4933707,16.97680771,-99999.0,'11111222,11111222,99999999' 
TABS,ioos:station:wmo:42043:1,2008-11-03T13:30:00Z,28.9818,-94.9186,2.0,240.1410927,20.00560172,-99999.0,'11111222,11111222,99999999' 
TABS,ioos:station:wmo:42043:1,2008-11-03T14:00:00Z,28.9818,-94.9186,2.0,235.5940458,22.65294904,-99999.0,'11111222,11111222,99999999' 
TABS,ioos:station:wmo:42043:1,2008-11-03T14:30:00Z,28.9818,-94.9186,2.0,228.9301226,22.69493776,-99999.0,'11111222,11111222,99999999' 
TABS,ioos:station:wmo:42043:1,2008-11-03T15:00:00Z,28.9818,-94.9186,2.0,231.6162626,22.33779309,-99999.0,'11111222,11111222,99999999' 
TABS,ioos:station:wmo:42043:1,2008-11-03T15:30:00Z,28.9818,-94.9186,2.0,235.9169204,22.66280874,-99999.0,'11111222,11111222,99999999' 
TABS,ioos:station:wmo:42043:1,2008-11-03T16:00:00Z,28.9818,-94.9186,2.0,238.0305174,23.45775778,-99999.0,'11111222,11111222,99999999' 
TABS,ioos:station:wmo:42043:1,2008-11-03T16:30:00Z,28.9818,-94.9186,2.0,240.973038,21.86656123,-99999.0,'11111222,11111222,99999999' 
TABS,ioos:station:wmo:42043:1,2008-11-03T17:00:00Z,28.9818,-94.9186,2.0,247.4519018,21.38463233,-99999.0,'11111222,11111222,99999999' 
TABS,ioos:station:wmo:42043:1,2008-11-03T17:30:00Z,28.9818,-94.9186,2.0,241.1023322,29.01241803,-99999.0,'11111222,11111222,99999999' 
TABS,ioos:station:wmo:42043:1,2008-11-03T18:00:00Z,28.9818,-94.9186,2.0,244.0090224,32.56325844,-99999.0,'11111222,11111222,99999999' 
TABS,ioos:station:wmo:42043:1,2008-11-03T18:30:00Z,28.9818,-94.9186,2.0,251.921651,32.4835466,-99999.0,'11111222,11111222,99999999' 
TABS,ioos:station:wmo:42043:1,2008-11-03T19:00:00Z,28.9818,-94.9186,2.0,248.0714815,33.57937015,-99999.0,'11111222,11111222,99999999' 
TABS,ioos:station:wmo:42043:1,2008-11-03T19:30:00Z,28.9818,-94.9186,2.0,253.021894,33.69864241,-99999.0,'11111222,11111222,99999999' 
TABS,ioos:station:wmo:42043:1,2008-11-03T20:00:00Z,28.9818,-94.9186,2.0,252.1209243,29.6414254,-99999.0,'11111222,11111222,99999999' 
TABS,ioos:station:wmo:42043:1,2008-11-03T20:30:00Z,28.9818,-94.9186,2.0,258.8743676,27.98591789,-99999.0,'11111222,11111222,99999999' 
TABS,ioos:station:wmo:42043:1,2008-11-03T21:00:00Z,28.9818,-94.9186,2.0,264.6112379,22.46929015,-99999.0,'11111222,11111222,99999999' 
TABS,ioos:station:wmo:42043:1,2008-11-03T21:30:00Z,28.9818,-94.9186,2.0,273.7619587,18.1390766,-99999.0,'11111222,11111222,99999999' 
TABS,ioos:station:wmo:42043:1,2008-11-03T22:00:00Z,28.9818,-94.9186,2.0,276.5163782,21.23718673,-99999.0,'11111222,11111222,99999999' 
TABS,ioos:station:wmo:42043:1,2008-11-03T22:30:00Z,28.9818,-94.9186,2.0,287.1655104,17.55178908,-99999.0,'11111222,11111222,99999999' 
TABS,ioos:station:wmo:42043:1,2008-11-03T23:00:00Z,28.9818,-94.9186,2.0,294.619008,17.64381195,-99999.0,'11111222,11111222,99999999' 
TABS,ioos:station:wmo:42043:1,2008-11-03T23:30:00Z,28.9818,-94.9186,2.0,294.1099242,15.03123415,-99999.0,'11111222,11111222,99999999' 
TABS,ioos:station:wmo:42043:1,2008-11-04T00:00:00Z,28.9818,-94.9186,2.0,283.6453606,13.14088658,-99999.0,'11111222,11111222,99999999' 
TABS,ioos:station:wmo:42043:1,2008-11-04T00:30:00Z,28.9818,-94.9186,2.0,281.101296,10.75115808,-99999.0,'11111222,11111222,99999999' 
TABS,ioos:station:wmo:42043:1,2008-11-04T01:00:00Z,28.9818,-94.9186,2.0,278.3758377,12.22033142,-99999.0,'11111222,11111222,99999999' 
TABS,ioos:station:wmo:42043:1,2008-11-04T01:30:00Z,28.9818,-94.9186,2.0,293.7247284,10.01647643,-99999.0,'11111222,11111222,99999999' 
TABS,ioos:station:wmo:42043:1,2008-11-04T02:00:00Z,28.9818,-94.9186,2.0,271.0357717,8.301355311,-99999.0,'11133222,11111222,99999999' 
TABS,ioos:station:wmo:42043:1,2008-11-04T02:30:00Z,28.9818,-94.9186,2.0,263.7107423,4.929665303,-99999.0,'11133222,11111222,99999999' 
TABS,ioos:station:wmo:42043:1,2008-11-04T03:00:00Z,28.9818,-94.9186,2.0,260.067949,5.218198923,-99999.0,'11133222,11111222,99999999' 
TABS,ioos:station:wmo:42043:1,2008-11-04T03:30:00Z,28.9818,-94.9186,2.0,240.6715785,6.308573531,-99999.0,'11133222,11111222,99999999' 
TABS,ioos:station:wmo:42043:1,2008-11-04T04:00:00Z,28.9818,-94.9186,2.0,239.7550494,6.968536432,-99999.0,'11133222,11111222,99999999' 
TABS,ioos:station:wmo:42043:1,2008-11-04T04:30:00Z,28.9818,-94.9186,2.0,228.4762462,7.346216713,-99999.0,'11133222,11111222,99999999' 
TABS,ioos:station:wmo:42043:1,2008-11-04T05:00:00Z,28.9818,-94.9186,2.0,239.9605346,5.313718096,-99999.0,'11133222,11111222,99999999' 
TABS,ioos:station:wmo:42043:1,2008-11-04T05:30:00Z,28.9818,-94.9186,2.0,223.3958253,7.073839127,-99999.0,'11133222,11111222,99999999' 
TABS,ioos:station:wmo:42043:1,2008-11-04T06:00:00Z,28.9818,-94.9186,2.0,236.6097743,7.940642291,-99999.0,'11133222,11111222,99999999' 
TABS,ioos:station:wmo:42043:1,2008-11-04T06:30:00Z,28.9818,-94.9186,2.0,227.4892314,6.185951827,-99999.0,'11133222,11111222,99999999' 
TABS,ioos:station:wmo:42043:1,2008-11-04T07:00:00Z,28.9818,-94.9186,2.0,253.9468706,8.064452864,-99999.0,'11133222,11111222,99999999' 
TABS,ioos:station:wmo:42043:1,2008-11-04T07:30:00Z,28.9818,-94.9186,2.0,245.2723225,7.530478072,-99999.0,'11133222,11111222,99999999' 
TABS,ioos:station:wmo:42043:1,2008-11-04T08:00:00Z,28.9818,-94.9186,2.0,249.2898766,9.162013971,-99999.0,'11133222,11111222,99999999' 
TABS,ioos:station:wmo:42043:1,2008-11-04T08:30:00Z,28.9818,-94.9186,2.0,228.9612019,7.676307706,-99999.0,'11133222,11111222,99999999' 
TABS,ioos:station:wmo:42043:1,2008-11-04T09:00:00Z,28.9818,-94.9186,2.0,249.8716164,10.81022201,-99999.0,'11111222,11111222,99999999' 
TABS,ioos:station:wmo:42043:1,2008-11-04T09:30:00Z,28.9818,-94.9186,2.0,247.1201366,8.48777945,-99999.0,'11133222,11111222,99999999' 
TABS,ioos:station:wmo:42043:1,2008-11-04T10:00:00Z,28.9818,-94.9186,2.0,238.5282366,11.03293705,-99999.0,'11111222,11111222,99999999' 
TABS,ioos:station:wmo:42043:1,2008-11-04T10:30:00Z,28.9818,-94.9186,2.0,224.7922426,9.765208651,-99999.0,'11133222,11111222,99999999' 
TABS,ioos:station:wmo:42043:1,2008-11-04T11:00:00Z,28.9818,-94.9186,2.0,236.6831785,14.03698686,-99999.0,'11111222,11111222,99999999' 
TABS,ioos:station:wmo:42043:1,2008-11-04T11:30:00Z,28.9818,-94.9186,2.0,238.8670628,12.80413996,-99999.0,'11111222,11111222,99999999' 
TABS,ioos:station:wmo:42043:1,2008-11-04T12:00:00Z,28.9818,-94.9186,2.0,255.5044334,17.25938875,-99999.0,'11111222,11111222,99999999' 
TABS,ioos:station:wmo:42043:1,2008-11-04T12:30:00Z,28.9818,-94.9186,2.0,250.2388337,19.81697505,-99999.0,'11111222,11111222,99999999' 
TABS,ioos:station:wmo:42043:1,2008-11-04T13:00:00Z,28.9818,-94.9186,2.0,250.2935289,21.382259,-99999.0,'11111222,11111222,99999999' 
TABS,ioos:station:wmo:42043:1,2008-11-04T13:30:00Z,28.9818,-94.9186,2.0,249.2405767,23.78408081,-99999.0,'11111222,11111222,99999999' 
TABS,ioos:station:wmo:42043:1,2008-11-04T14:00:00Z,28.9818,-94.9186,2.0,242.1122895,24.03071368,-99999.0,'11111222,11111222,99999999' 
TABS,ioos:station:wmo:42043:1,2008-11-04T14:30:00Z,28.9818,-94.9186,2.0,240.2994044,27.06562765,-99999.0,'11111222,11111222,99999999' 
TABS,ioos:station:wmo:42043:1,2008-11-04T15:00:00Z,28.9818,-94.9186,2.0,242.6585133,26.08388966,-99999.0,'11111222,11111222,99999999' 
TABS,ioos:station:wmo:42043:1,2008-11-04T15:30:00Z,28.9818,-94.9186,2.0,241.4576767,26.70560241,-99999.0,'11111222,11111222,99999999' 
TABS,ioos:station:wmo:42043:1,2008-11-04T16:00:00Z,28.9818,-94.9186,2.0,240.8746154,29.23669783,-99999.0,'11111222,11111222,99999999' 